This is the latest recevied weather packets stored in our database for station/object EA1HEH-13. If no packets are shown the sender has not sent any weather packets the latest 10 day(s).
| Time | Temp. | Humidity | Pressure | Rain* | Wind** | Luminosity | Snow |
|---|---|---|---|---|---|---|---|
| 1777798540 | 16.67° C | 47% | 933.1 hPa | - | - | - | - |
| 1777797940 | 16.67° C | 48% | 933.3 hPa | - | - | - | - |
| 1777797340 | 16.67° C | 49% | 933.4 hPa | - | - | - | - |
| 1777796740 | 16.11° C | 49% | 933.4 hPa | - | - | - | - |
| 1777796140 | 16.11° C | 48% | 933.6 hPa | - | - | - | - |
| 1777795540 | 16.11° C | 49% | 933.6 hPa | - | - | - | - |
| 1777794940 | 16.11° C | 49% | 933.6 hPa | - | - | - | - |
| 1777793740 | 15.56° C | 49% | 933.5 hPa | - | - | - | - |
| 1777793140 | 15.56° C | 49% | 933.6 hPa | - | - | - | - |
| 1777792540 | 15.56° C | 50% | 933.4 hPa | - | - | - | - |
| 1777791940 | 15.56° C | 49% | 933.4 hPa | - | - | - | - |
| 1777791340 | 15.56° C | 49% | 933.5 hPa | - | - | - | - |
| 1777790740 | 15.56° C | 49% | 933.2 hPa | - | - | - | - |
| 1777790140 | 15.56° C | 49% | 933.2 hPa | - | - | - | - |
| 1777789540 | 16.11° C | 46% | 933.2 hPa | - | - | - | - |
| 1777788940 | 16.67° C | 43% | 933.3 hPa | - | - | - | - |
| 1777788340 | 17.22° C | 34% | 933.3 hPa | - | - | - | - |
| 1777787740 | 17.22° C | 34% | 933.2 hPa | - | - | - | - |
| 1777787140 | 17.22° C | 34% | 933.2 hPa | - | - | - | - |
| 1777786540 | 17.22° C | 33% | 933.2 hPa | - | - | - | - |
| 1777785940 | 17.22° C | 33% | 933.3 hPa | - | - | - | - |
| 1777785340 | 17.78° C | 33% | 933.2 hPa | - | - | - | - |
| 1777784740 | 17.78° C | 33% | 933.4 hPa | - | - | - | - |
| 1777784140 | 17.78° C | 33% | 933.4 hPa | - | - | - | - |
| 1777783540 | 17.78° C | 33% | 933.3 hPa | - | - | - | - |
* Rain since midnight (hover to see other rain measurements)
** Current wind speed in m/s (hover to see current wind gust speed)